ORBCOMM FM116 [+]

Last updated on July 6, 2021, 3:36 p.m. UTC

1 41189U 15081L   21187.17955872  .00000017  00000-0  42301-4 0  9993
2 41189  47.0011 142.4313 0003115 289.3392  70.7155 14.54893836295598
UTC
Height (km)
Latitude
Longitude
Inclination
Orbital Period
UTC large
Height (km)
Speed (km/s)
/
Latitude / Longitude
Inclination (degrees)
Orbital Period (minutes)
Azimuth
Elevation
Range (km)
Doppler Factor
iOS Compass Heading
iOS Angle